,,,PA_Meas_PMT16A,,PR_Meas_QMR101_102,,RH_Meas_QMH101,,SR_Meas_QMS101,,TA_Meas_QMH101,,GenWind,,GenWind,
date,time,status,PA,status,PR,status,RH,status,SR,status,TA,status,DirAvg,status,SpdAvg,
2011-03-16, 00:00:04,VALID,1003.03,VALID,0,INVALID,150.182,VALID,0.100563,VALID,25.6876,VALID,350,VALID,0.632813,
2011-03-16, 00:01:04,VALID,1003.03,VALID,0,INVALID,150.091,VALID,0.100563,VALID,25.6681,VALID,347,VALID,0.721094,
2011-03-16, 00:02:04,VALID,1003.04,VALID,0,INVALID,150.182,VALID,0.100563,VALID,25.6895,VALID,351,VALID,0.811328,
2011-03-16, 00:03:04,VALID,1003.03,VALID,0,INVALID,146.803,VALID,0.100563,VALID,25.6681,VALID,349,VALID,0.851563,
2011-03-16, 00:04:04,VALID,1003.03,VALID,0,INVALID,153.135,VALID,0,VALID,25.6681,VALID,349,VALID,0.849609,
2011-03-16, 00:05:04,VALID,1003.01,VALID,0,INVALID,154.561,VALID,0,VALID,25.6272,VALID,351,VALID,0.867969,
2011-03-16, 00:06:04,VALID,1002.99,VALID,0,INVALID,163.388,VALID,0.100563,VALID,25.6097,VALID,345,VALID,0.681641,
2011-03-16, 00:07:04,VALID,1003.04,VALID,0,INVALID,163.548,VALID,0,VALID,25.5688,VALID,352,VALID,1.24883,
2011-03-16, 00:08:04,VALID,1002.99,VALID,0,INVALID,163.54,VALID,0.100563,VALID,25.5902,VALID,347,VALID,0.847266,
2011-03-16, 00:09:04,VALID,1002.98,VALID,0,INVALID,160.374,VALID,0.100563,VALID,25.6097,VALID,351,VALID,0.708984,
2011-03-16, 00:10:04,VALID,1002.96,VALID,0,INVALID,149.64,VALID,0,VALID,25.6486,VALID,340,VALID,0.809766,
2011-03-16, 00:11:04,VALID,1002.95,VALID,0,INVALID,143.011,VALID,0.100563,VALID,25.6876,VALID,356,VALID,0.860937,
2011-03-16, 00:12:04,VALID,1002.88,VALID,0,INVALID,138.136,VALID,0,VALID,25.6662,VALID,349,VALID,0.586719,
2011-03-16, 00:13:04,VALID,1002.83,VALID,0,INVALID,135.802,VALID,0,VALID,25.709,VALID,354,VALID,0.858984,
2011-03-16, 00:14:04,VALID,1002.83,VALID,0,INVALID,135.641,VALID,0,VALID,25.7304,VALID,347,VALID,0.830859,
2011-03-16, 00:15:04,VALID,1002.77,VALID,0,INVALID,135.68,VALID,0,VALID,25.709,VALID,350,VALID,1.36641,
2011-03-16, 00:16:04,VALID,1002.79,VALID,0,INVALID,137.877,VALID,0,VALID,25.709,VALID,340,VALID,0.986328,
2011-03-16, 00:17:04,VALID,1002.72,VALID,0,INVALID,144.834,VALID,0,VALID,25.6895,VALID,351,VALID,0.527344,
2011-03-16, 00:18:04,VALID,1002.73,VALID,0,INVALID,141.584,VALID,0,VALID,25.67,VALID,349,VALID,0.899219,
2011-03-16, 00:19:04,VALID,1002.71,VALID,0,INVALID,144.499,VALID,0,VALID,25.6895,VALID,355,VALID,0.78125,
2011-03-16, 00:20:04,VALID,1002.7,VALID,0,INVALID,144.056,VALID,0,VALID,25.6895,VALID,353,VALID,0.878906,
2011-03-16, 00:21:04,VALID,1002.7,VALID,0,INVALID,142.057,VALID,0,VALID,25.7285,VALID,1,VALID,0.846094,
2011-03-16, 00:22:04,VALID,1002.71,VALID,0,INVALID,137.648,VALID,0,VALID,25.709,VALID,351,VALID,0.857031,
2011-03-16, 00:23:04,VALID,1002.67,VALID,0,INVALID,136.237,VALID,0,VALID,25.709,VALID,345,VALID,1.0832,
2011-03-16, 00:24:04,VALID,1002.69,VALID,0,INVALID,138.571,VALID,0,VALID,25.709,VALID,341,VALID,0.773438,
2011-03-16, 00:25:04,VALID,1002.69,VALID,0,INVALID,133.475,VALID,0,VALID,25.7071,VALID,351,VALID,1.01992,
2011-03-16, 00:26:04,VALID,1002.67,VALID,0,INVALID,130.172,VALID,0,VALID,25.748,VALID,350,VALID,1.25898,
2011-03-16, 00:27:04,VALID,1002.68,VALID,0,INVALID,126.411,VALID,0,VALID,25.746,VALID,348,VALID,0.974609,
2011-03-16, 00:28:04,VALID,1002.68,VALID,0,INVALID,127.7,VALID,0,VALID,25.744,VALID,350,VALID,0.550391,
2011-03-16, 00:29:04,VALID,1002.68,VALID,0,INVALID,129.447,VALID,0,VALID,25.7655,VALID,350,VALID,0.775391,
2011-03-16, 00:30:04,VALID,1002.68,VALID,0,INVALID,131.057,VALID,0,VALID,25.7246,VALID,352,VALID,0.647266,
2011-03-16, 00:31:04,VALID,1002.68,VALID,0,INVALID,131.781,VALID,0,VALID,25.7285,VALID,350,VALID,0.522266,
2011-03-16, 00:32:04,VALID,1002.66,VALID,0,INVALID,132.91,VALID,0,VALID,25.6856,VALID,351,VALID,0.682813,
2011-03-16, 00:33:04,VALID,1002.66,VALID,0,INVALID,135.451,VALID,0.100563,VALID,25.7071,VALID,346,VALID,0.539063,
2011-03-16, 00:34:04,VALID,1002.64,VALID,0,INVALID,133.429,VALID,0,VALID,25.6856,VALID,344,VALID,0.830859,
2011-03-16, 00:35:04,VALID,1002.66,VALID,0,INVALID,131.293,VALID,0,VALID,25.7265,VALID,355,VALID,0.537109,
2011-03-16, 00:36:04,VALID,1002.61,VALID,0,INVALID,127.799,VALID,0,VALID,25.746,VALID,341,VALID,0.908203,
2011-03-16, 00:37:04,VALID,1002.6,VALID,0,INVALID,124.641,VALID,0,VALID,25.7655,VALID,349,VALID,0.810547,
2011-03-16, 00:38:04,VALID,1002.61,VALID,0,INVALID,118.866,VALID,0.100563,VALID,25.785,VALID,346,VALID,0.972656,
2011-03-16, 00:39:04,VALID,1002.58,VALID,0,INVALID,115.089,VALID,0,VALID,25.8219,VALID,356,VALID,0.841016,
2011-03-16, 00:40:04,VALID,1002.57,VALID,0,INVALID,111.115,VALID,0.100563,VALID,25.8609,VALID,352,VALID,0.777344,
2011-03-16, 00:41:04,VALID,1002.57,VALID,0,VALID,104,VALID,0,VALID,25.8804,VALID,350,VALID,1.52305,
2011-03-16, 00:42:04,VALID,1002.56,VALID,0,VALID,104,VALID,0,VALID,25.9583,VALID,352,VALID,0.848828,
2011-03-16, 00:43:04,VALID,1002.53,VALID,0,VALID,104,VALID,0,VALID,26.0012,VALID,344,VALID,0.683594,
2011-03-16, 00:44:04,VALID,1002.5,VALID,0,VALID,104,VALID,0,VALID,26.0012,VALID,358,VALID,0.825391,
2011-03-16, 00:45:04,VALID,1002.46,VALID,0,VALID,104,VALID,0,VALID,26.0012,VALID,353,VALID,0.917188,
2011-03-16, 00:46:04,VALID,1002.42,VALID,0,VALID,103.73,VALID,0,VALID,26.0401,VALID,342,VALID,1.06055,
2011-03-16, 00:47:04,VALID,1002.41,VALID,0,VALID,103.692,VALID,0,VALID,26.0187,VALID,357,VALID,0.89375,
2011-03-16, 00:48:04,VALID,1002.36,VALID,0,VALID,102.845,VALID,0,VALID,26.0791,VALID,348,VALID,0.989062,
2011-03-16, 00:49:04,VALID,1002.36,VALID,0,VALID,102.38,VALID,0,VALID,26.0985,VALID,347,VALID,1.02305,
2011-03-16, 00:50:04,VALID,1002.33,VALID,0,VALID,102.296,VALID,0,VALID,26.0966,VALID,352,VALID,1.05703,
2011-03-16, 00:51:04,VALID,1002.28,VALID,0,VALID,101.075,VALID,0,VALID,26.118,VALID,355,VALID,1.51016,
2011-03-16, 00:52:04,VALID,1002.3,VALID,0,VALID,101.006,VALID,0,VALID,26.1375,VALID,357,VALID,1.2457,
2011-03-16, 00:53:04,VALID,1002.22,VALID,0,VALID,101.06,VALID,0,VALID,26.1765,VALID,350,VALID,0.866406,
2011-03-16, 00:54:04,VALID,1002.2,VALID,0,VALID,100.343,VALID,0,VALID,26.1355,VALID,355,VALID,1.19336,
2011-03-16, 00:55:04,VALID,1002.18,VALID,0,VALID,100.655,VALID,0,VALID,26.1375,VALID,355,VALID,1.03672,
2011-03-16, 00:56:04,VALID,1002.15,VALID,0,VALID,100.411,VALID,0,VALID,26.1375,VALID,350,VALID,0.717578,
2011-03-16, 00:57:04,VALID,1002.18,VALID,0,VALID,99.9841,VALID,0,VALID,26.159,VALID,349,VALID,1.01797,
2011-03-16, 00:58:04,VALID,1002.15,VALID,0,VALID,100.099,VALID,0,VALID,26.157,VALID,357,VALID,0.769531,
2011-03-16, 00:59:04,VALID,1002.15,VALID,0,VALID,99.8773,VALID,0,VALID,26.1355,VALID,344,VALID,0.81875,
2011-03-16, 01:00:04,VALID,1002.14,VALID,0,VALID,100.541,VALID,0,VALID,26.116,VALID,342,VALID,0.739844,
2011-03-16, 01:01:04,VALID,1002.12,VALID,0,VALID,100.671,VALID,0,VALID,26.0771,VALID,6,VALID,0.830078,
2011-03-16, 01:02:04,VALID,1002.16,VALID,0,VALID,100.915,VALID,0,VALID,26.0167,VALID,1,VALID,1.19531,
2011-03-16, 01:03:04,VALID,1002.16,VALID,0,VALID,100.076,VALID,0,VALID,26.0576,VALID,347,VALID,1.11367,
2011-03-16, 01:04:04,VALID,1002.18,VALID,0,VALID,100.243,VALID,0,VALID,26.0985,VALID,350,VALID,0.705469,
2011-03-16, 01:05:04,VALID,1002.18,VALID,0,VALID,100.495,VALID,0,VALID,26.0576,VALID,356,VALID,0.75,
2011-03-16, 01:06:04,VALID,1002.19,VALID,0,VALID,100.884,VALID,0,VALID,26.0401,VALID,349,VALID,0.780469,
2011-03-16, 01:07:04,VALID,1002.19,VALID,0,VALID,101.456,VALID,0,VALID,25.9797,VALID,347,VALID,0.663672,
2011-03-16, 01:08:04,VALID,1002.17,VALID,0,VALID,101.914,VALID,0,VALID,25.9408,VALID,349,VALID,1.12891,
2011-03-16, 01:09:04,VALID,1002.15,VALID,0,VALID,102.212,VALID,0.100563,VALID,25.9018,VALID,343,VALID,0.603516,
2011-03-16, 01:10:04,VALID,1002.18,VALID,0,VALID,102.105,VALID,0,VALID,25.9018,VALID,347,VALID,0.826563,
2011-03-16, 01:11:04,VALID,1002.17,VALID,0,VALID,102.669,VALID,0,VALID,25.9038,VALID,354,VALID,0.7625,
2011-03-16, 01:12:04,VALID,1002.19,VALID,0,VALID,102.868,VALID,0,VALID,25.8629,VALID,350,VALID,0.699219,
2011-03-16, 01:13:04,VALID,1002.19,VALID,0,VALID,103.097,VALID,0,VALID,25.8025,VALID,355,VALID,0.73125,
2011-03-16, 01:14:04,VALID,1002.18,VALID,0,VALID,102.906,VALID,0.100563,VALID,25.783,VALID,334,VALID,0.974609,
2011-03-16, 01:15:04,VALID,1002.19,VALID,0,VALID,102.738,VALID,0,VALID,25.8044,VALID,354,VALID,1.41758,
2011-03-16, 01:16:04,VALID,1002.21,VALID,0,VALID,102.303,VALID,0,VALID,25.8239,VALID,346,VALID,0.900781,
2011-03-16, 01:17:04,VALID,1002.17,VALID,0,VALID,101.777,VALID,0,VALID,25.8434,VALID,346,VALID,0.872656,
2011-03-16, 01:18:04,VALID,1002.15,VALID,0,VALID,101.861,VALID,0,VALID,25.8239,VALID,332,VALID,0.577734,
2011-03-16, 01:19:04,VALID,1002.13,VALID,0,VALID,102.387,VALID,0,VALID,25.8259,VALID,335,VALID,0.619531,
2011-03-16, 01:20:04,VALID,1002.12,VALID,0,VALID,102.837,VALID,0,VALID,25.8064,VALID,342,VALID,0.728906,
2011-03-16, 01:21:04,VALID,1002.12,VALID,0,VALID,103.409,VALID,0,VALID,25.7655,VALID,342,VALID,0.973437,
2011-03-16, 01:22:04,VALID,1002.08,VALID,0,VALID,104,VALID,0,VALID,25.746,VALID,350,VALID,0.710547,
2011-03-16, 01:23:04,VALID,1002.08,VALID,0,VALID,104,VALID,0.100563,VALID,25.7071,VALID,350,VALID,0.800391,
2011-03-16, 01:24:04,VALID,1002.05,VALID,0,VALID,104,VALID,0,VALID,25.6681,VALID,345,VALID,0.763672,
2011-03-16, 01:25:04,VALID,1002.08,VALID,0,VALID,104,VALID,0,VALID,25.6486,VALID,346,VALID,0.741797,
2011-03-16, 01:26:04,VALID,1002.08,VALID,0,INVALID,111.061,VALID,0,VALID,25.6097,VALID,359,VALID,1.34063,
2011-03-16, 01:27:04,VALID,1002.06,VALID,0,INVALID,112.968,VALID,0,VALID,25.5883,VALID,352,VALID,0.577344,
2011-03-16, 01:28:04,VALID,1002.06,VALID,0,INVALID,111.321,VALID,0,VALID,25.6097,VALID,353,VALID,0.934766,
2011-03-16, 01:29:04,VALID,1002.05,VALID,0,INVALID,110.855,VALID,0,VALID,25.6486,VALID,5,VALID,1.02617,
2011-03-16, 01:30:04,VALID,1002.03,VALID,0,INVALID,109.925,VALID,0,VALID,25.6486,VALID,355,VALID,0.935156,
2011-03-16, 01:31:04,VALID,1002.01,VALID,0,INVALID,109.543,VALID,0,VALID,25.6681,VALID,355,VALID,0.867578,
2011-03-16, 01:32:04,VALID,1002,VALID,0,INVALID,109.947,VALID,0,VALID,25.67,VALID,334,VALID,0.575781,
2011-03-16, 01:33:04,VALID,1001.99,VALID,0,INVALID,111.267,VALID,0,VALID,25.6681,VALID,355,VALID,0.759375,
2011-03-16, 01:34:04,VALID,1001.96,VALID,0,INVALID,110.268,VALID,0,VALID,25.67,VALID,333,VALID,0.755078,
2011-03-16, 01:35:04,VALID,1001.95,VALID,0,INVALID,111.008,VALID,0.100563,VALID,25.67,VALID,357,VALID,0.676562,
2011-03-16, 01:36:04,VALID,1001.9,VALID,0,INVALID,110.893,VALID,0,VALID,25.6486,VALID,343,VALID,0.848047,
2011-03-16, 01:37:04,VALID,1001.91,VALID,0,INVALID,111.221,VALID,0,VALID,25.6292,VALID,342,VALID,0.594141,
2011-03-16, 01:38:04,VALID,1001.88,VALID,0,INVALID,111.199,VALID,0,VALID,25.6292,VALID,348,VALID,0.751172,
2011-03-16, 01:39:04,VALID,1001.83,VALID,0,INVALID,112.122,VALID,0,VALID,25.6097,VALID,358,VALID,0.942578,
2011-03-16, 01:40:04,VALID,1001.82,VALID,0,INVALID,113.609,VALID,0,VALID,25.5902,VALID,355,VALID,0.93125,
2011-03-16, 01:41:04,VALID,1001.78,VALID,0,INVALID,116.47,VALID,0,VALID,25.5707,VALID,349,VALID,0.989844,
2011-03-16, 01:42:04,VALID,1001.75,VALID,0,INVALID,119.323,VALID,0,VALID,25.5727,VALID,356,VALID,0.936328,
2011-03-16, 01:43:04,VALID,1001.7,VALID,0,INVALID,120.391,VALID,0.100563,VALID,25.5513,VALID,4,VALID,0.794531,
2011-03-16, 01:44:04,VALID,1001.7,VALID,0,INVALID,119.361,VALID,0,VALID,25.5707,VALID,358,VALID,1.29102,
2011-03-16, 01:45:04,VALID,1001.71,VALID,0,INVALID,116.348,VALID,0.100563,VALID,25.6506,VALID,347,VALID,0.969531,
2011-03-16, 01:46:04,VALID,1001.68,VALID,0,INVALID,110.39,VALID,0.100563,VALID,25.6662,VALID,351,VALID,1.0875,
2011-03-16, 01:47:04,VALID,1001.72,VALID,0,VALID,104,VALID,0.100563,VALID,25.746,VALID,11,VALID,1.00273,
2011-03-16, 01:48:04,VALID,1001.72,VALID,0,VALID,104,VALID,0,VALID,25.783,VALID,9,VALID,0.816797,
2011-03-16, 01:49:04,VALID,1001.74,VALID,0,VALID,103.951,VALID,0.100563,VALID,25.8239,VALID,8,VALID,1.15664,
2011-03-16, 01:50:04,VALID,1001.75,VALID,0,VALID,102.723,VALID,0,VALID,25.8823,VALID,12,VALID,1.19297,
2011-03-16, 01:51:04,VALID,1001.74,VALID,0,VALID,101.815,VALID,0,VALID,25.9193,VALID,3,VALID,1.15508,
2011-03-16, 01:52:04,VALID,1001.75,VALID,0,VALID,101.167,VALID,0,VALID,25.9992,VALID,358,VALID,0.980469,
2011-03-16, 01:53:04,VALID,1001.72,VALID,0,VALID,100.716,VALID,0,VALID,25.9797,VALID,3,VALID,1.30313,
2011-03-16, 01:54:04,VALID,1001.72,VALID,0,VALID,100.77,VALID,0,VALID,25.9992,VALID,3,VALID,0.949609,
2011-03-16, 01:55:04,VALID,1001.71,VALID,0,VALID,100.999,VALID,0,VALID,25.9992,VALID,5,VALID,0.577734,
2011-03-16, 01:56:04,VALID,1001.69,VALID,0,VALID,100.663,VALID,0,VALID,25.9992,VALID,21,VALID,1.23555,
2011-03-16, 01:57:04,VALID,1001.68,VALID,0,VALID,100.427,VALID,0,VALID,25.9992,VALID,354,VALID,1.12773,
2011-03-16, 01:58:04,VALID,1001.68,VALID,0,VALID,100.396,VALID,0,VALID,25.9777,VALID,351,VALID,1.18125,
2011-03-16, 01:59:04,VALID,1001.67,VALID,0,VALID,100.045,VALID,0.100563,VALID,25.9992,VALID,19,VALID,1.40977,
2011-03-16, 02:00:04,VALID,1001.66,VALID,0,VALID,99.8468,VALID,0.100563,VALID,25.9992,VALID,357,VALID,1.02344,
2011-03-16, 02:01:04,VALID,1001.64,VALID,0,VALID,100.091,VALID,0,VALID,25.9972,VALID,354,VALID,0.748828,
2011-03-16, 02:02:04,VALID,1001.64,VALID,0,VALID,100.038,VALID,0,VALID,25.9992,VALID,353,VALID,0.525,
2011-03-16, 02:03:04,VALID,1001.59,VALID,0,VALID,100.373,VALID,0.100563,VALID,25.9992,VALID,3,VALID,0.669922,
2011-03-16, 02:04:04,VALID,1001.61,VALID,0,VALID,100.526,VALID,0.100563,VALID,25.9602,VALID,344,VALID,0.873047,
2011-03-16, 02:05:04,VALID,1001.6,VALID,0,VALID,100.617,VALID,0,VALID,25.9427,VALID,355,VALID,0.814844,
2011-03-16, 02:06:04,VALID,1001.6,VALID,0,VALID,101.144,VALID,0.100563,VALID,25.8804,VALID,335,VALID,0.716797,
2011-03-16, 02:07:04,VALID,1001.59,VALID,0,VALID,101.868,VALID,0.100563,VALID,25.8648,VALID,347,VALID,0.5625,
2011-03-16, 02:08:04,VALID,1001.59,VALID,0,VALID,102.578,VALID,0,VALID,25.8044,VALID,358,VALID,0.901172,
2011-03-16, 02:09:04,VALID,1001.6,VALID,0,VALID,102.601,VALID,0,VALID,25.7655,VALID,340,VALID,0.919141,
2011-03-16, 02:10:04,VALID,1001.6,VALID,0,VALID,103.257,VALID,0.100563,VALID,25.746,VALID,347,VALID,0.607031,
2011-03-16, 02:11:04,VALID,1001.6,VALID,0,VALID,103.768,VALID,0.100563,VALID,25.7265,VALID,354,VALID,0.811719,
2011-03-16, 02:12:04,VALID,1001.63,VALID,0,VALID,104,VALID,0,VALID,25.6856,VALID,5,VALID,1.15625,
2011-03-16, 02:13:04,VALID,1001.61,VALID,0,VALID,104,VALID,0,VALID,25.6662,VALID,344,VALID,0.6625,
2011-03-16, 02:14:04,VALID,1001.59,VALID,0,VALID,104,VALID,0,VALID,25.6681,VALID,339,VALID,0.737109,
2011-03-16, 02:15:04,VALID,1001.58,VALID,0,VALID,104,VALID,0.100563,VALID,25.6486,VALID,332,VALID,0.709766,
2011-03-16, 02:16:04,VALID,1001.58,VALID,0,INVALID,111.244,VALID,0,VALID,25.6116,VALID,349,VALID,0.654688,
2011-03-16, 02:17:04,VALID,1001.55,VALID,0,INVALID,115.913,VALID,0.100563,VALID,25.5318,VALID,344,VALID,0.842969,
2011-03-16, 02:18:04,VALID,1001.57,VALID,0,INVALID,120.902,VALID,0,VALID,25.4714,VALID,343,VALID,0.816016,
2011-03-16, 02:19:04,VALID,1001.56,VALID,0,INVALID,129.332,VALID,0,VALID,25.4539,VALID,348,VALID,0.641797,
2011-03-16, 02:20:04,VALID,1001.57,VALID,0,INVALID,144.537,VALID,0.100563,VALID,25.4344,VALID,343,VALID,0.736328,
2011-03-16, 02:21:04,VALID,1001.57,VALID,0,INVALID,163.548,VALID,0.100563,VALID,25.4169,VALID,346,VALID,0.790625,
2011-03-16, 02:22:04,VALID,1001.58,VALID,0,INVALID,163.594,VALID,0,VALID,25.376,VALID,351,VALID,0.850391,
2011-03-16, 02:23:04,VALID,1001.58,VALID,0,INVALID,163.639,VALID,0,VALID,25.337,VALID,349,VALID,0.766016,
2011-03-16, 02:24:04,VALID,1001.59,VALID,0,INVALID,163.617,VALID,0,VALID,25.2981,VALID,341,VALID,0.716016,
2011-03-16, 02:25:04,VALID,1001.58,VALID,0,INVALID,163.624,VALID,0,VALID,25.2786,VALID,354,VALID,0.825,
2011-03-16, 02:26:04,VALID,1001.56,VALID,0,INVALID,163.586,VALID,0,VALID,25.2786,VALID,356,VALID,0.954297,
2011-03-16, 02:27:04,VALID,1001.53,VALID,0,INVALID,163.609,VALID,0.100563,VALID,25.2981,VALID,359,VALID,0.858203,
2011-03-16, 02:28:04,VALID,1001.49,VALID,0,INVALID,163.617,VALID,0,VALID,25.3,VALID,356,VALID,0.953125,
2011-03-16, 02:29:04,VALID,1001.49,VALID,0,INVALID,163.609,VALID,0,VALID,25.339,VALID,360,VALID,0.952734,
2011-03-16, 02:30:04,VALID,1001.45,VALID,0,INVALID,163.609,VALID,0.100563,VALID,25.3584,VALID,354,VALID,1.01836,
2011-03-16, 02:31:04,VALID,1001.42,VALID,0,INVALID,163.624,VALID,0,VALID,25.4169,VALID,6,VALID,1.13125,
2011-03-16, 02:32:04,VALID,1001.4,VALID,0,INVALID,163.594,VALID,0,VALID,25.4539,VALID,2,VALID,0.919141,
2011-03-16, 02:33:04,VALID,1001.38,VALID,0,INVALID,163.617,VALID,0,VALID,25.5142,VALID,353,VALID,0.842188,
2011-03-16, 02:34:04,VALID,1001.37,VALID,0,INVALID,163.533,VALID,0,VALID,25.5337,VALID,12,VALID,1.05586,
2011-03-16, 02:35:04,VALID,1001.38,VALID,0,INVALID,152.753,VALID,0,VALID,25.633,VALID,5,VALID,0.933203,
2011-03-16, 02:36:04,VALID,1001.36,VALID,0,INVALID,134.68,VALID,0,VALID,25.6895,VALID,5,VALID,1.11172,
2011-03-16, 02:37:04,VALID,1001.35,VALID,0,INVALID,119.819,VALID,0,VALID,25.7674,VALID,24,VALID,1.53906,
2011-03-16, 02:38:04,VALID,1001.34,VALID,0,INVALID,111.931,VALID,0,VALID,25.8453,VALID,360,VALID,1.4793,
2011-03-16, 02:39:04,VALID,1001.35,VALID,0,VALID,104,VALID,0,VALID,25.8823,VALID,6,VALID,0.9375,
2011-03-16, 02:40:04,VALID,1001.36,VALID,0,VALID,104,VALID,0,VALID,25.9232,VALID,20,VALID,1.21563,
2011-03-16, 02:41:04,VALID,1001.33,VALID,0,VALID,104,VALID,0,VALID,25.9213,VALID,4,VALID,1.01836,
2011-03-16, 02:42:04,VALID,1001.35,VALID,0,VALID,104,VALID,0,VALID,25.9427,VALID,3,VALID,1.09219,
2011-03-16, 02:43:04,VALID,1001.35,VALID,0,VALID,104,VALID,0,VALID,25.9622,VALID,17,VALID,0.982031,
2011-03-16, 02:44:04,VALID,1001.34,VALID,0,VALID,103.768,VALID,0,VALID,25.9602,VALID,15,VALID,1.31875,
2011-03-16, 02:45:04,VALID,1001.34,VALID,0,VALID,103.242,VALID,0,VALID,26.0012,VALID,360,VALID,0.816797,
2011-03-16, 02:46:04,VALID,1001.35,VALID,0,VALID,103.333,VALID,0,VALID,25.9797,VALID,28,VALID,1.27266,
2011-03-16, 02:47:04,VALID,1001.33,VALID,0,VALID,102.654,VALID,0,VALID,26.0206,VALID,348,VALID,1.1082,
2011-03-16, 02:48:04,VALID,1001.34,VALID,0,VALID,102.593,VALID,0,VALID,25.9992,VALID,357,VALID,0.653125,
2011-03-16, 02:49:04,VALID,1001.34,VALID,0,VALID,102.563,VALID,0,VALID,25.9602,VALID,2,VALID,0.867969,
2011-03-16, 02:50:04,VALID,1001.32,VALID,0,VALID,102.654,VALID,0,VALID,25.9427,VALID,353,VALID,1.00859,
2011-03-16, 02:51:04,VALID,1001.32,VALID,0,VALID,103.081,VALID,0,VALID,25.9232,VALID,359,VALID,0.845703,
2011-03-16, 02:52:04,VALID,1001.3,VALID,0,VALID,103.432,VALID,0,VALID,25.8434,VALID,351,VALID,0.706641,
2011-03-16, 02:53:04,VALID,1001.32,VALID,0,VALID,104,VALID,0,VALID,25.785,VALID,355,VALID,0.651172,
2011-03-16, 02:54:04,VALID,1001.29,VALID,0,VALID,104,VALID,0,VALID,25.7071,VALID,352,VALID,0.732422,
2011-03-16, 02:55:04,VALID,1001.24,VALID,0,INVALID,110.611,VALID,0,VALID,25.67,VALID,353,VALID,0.767969,
2011-03-16, 02:56:04,VALID,1001.24,VALID,0,INVALID,116.188,VALID,0,VALID,25.6311,VALID,8,VALID,0.867188,
2011-03-16, 02:57:04,VALID,1001.22,VALID,0,INVALID,122.55,VALID,0,VALID,25.6506,VALID,16,VALID,1.0832,
2011-03-16, 02:58:04,VALID,1001.2,VALID,0,INVALID,118.934,VALID,0,VALID,25.6681,VALID,358,VALID,1.08164,
2011-03-16, 02:59:04,VALID,1001.2,VALID,0,INVALID,117.698,VALID,0,VALID,25.6876,VALID,353,VALID,0.876562,
2011-03-16, 03:00:04,VALID,1001.17,VALID,0,INVALID,115.188,VALID,0,VALID,25.7285,VALID,354,VALID,0.995313,
2011-03-16, 03:01:04,VALID,1001.17,VALID,0,INVALID,114.105,VALID,0,VALID,25.7285,VALID,14,VALID,1.11797,
2011-03-16, 03:02:04,VALID,1001.17,VALID,0,INVALID,112.618,VALID,0,VALID,25.7674,VALID,358,VALID,0.958594,
2011-03-16, 03:03:04,VALID,1001.15,VALID,0,INVALID,111.778,VALID,0,VALID,25.7889,VALID,359,VALID,0.898047,
2011-03-16, 03:04:04,VALID,1001.14,VALID,0,INVALID,110.954,VALID,0,VALID,25.7674,VALID,353,VALID,1.05078,
2011-03-16, 03:05:04,VALID,1001.11,VALID,0,INVALID,110.878,VALID,0,VALID,25.7869,VALID,5,VALID,1.00117,
2011-03-16, 03:06:04,VALID,1001.1,VALID,0,INVALID,109.001,VALID,0,VALID,25.7869,VALID,358,VALID,0.754297,
2011-03-16, 03:07:04,VALID,1001.08,VALID,0,VALID,104,VALID,0,VALID,25.7265,VALID,342,VALID,0.420312,
2011-03-16, 03:08:04,VALID,1001.06,VALID,0,INVALID,111.176,VALID,0,VALID,25.6895,VALID,343,VALID,0.813281,
2011-03-16, 03:09:04,VALID,1001.04,VALID,0,INVALID,115.471,VALID,0,VALID,25.6116,VALID,352,VALID,0.724219,
2011-03-16, 03:10:04,VALID,1001.06,VALID,0,INVALID,124.358,VALID,0,VALID,25.5337,VALID,345,VALID,0.641016,
2011-03-16, 03:11:04,VALID,1001.03,VALID,0,INVALID,136.977,VALID,0,VALID,25.4967,VALID,343,VALID,0.661719,
2011-03-16, 03:12:04,VALID,1001.01,VALID,0,INVALID,153.463,VALID,0,VALID,25.4363,VALID,345,VALID,0.771875,
2011-03-16, 03:13:04,VALID,1001.01,VALID,0,INVALID,163.563,VALID,0.100563,VALID,25.4149,VALID,343,VALID,0.513672,
2011-03-16, 03:14:04,VALID,1000.99,VALID,0,INVALID,163.594,VALID,0.100563,VALID,25.3741,VALID,337,VALID,0.680859,
2011-03-16, 03:15:04,VALID,1000.98,VALID,0,INVALID,163.601,VALID,0.100563,VALID,25.3351,VALID,341,VALID,0.625781,
2011-03-16, 03:16:04,VALID,1000.99,VALID,0,INVALID,163.639,VALID,0.100563,VALID,25.3157,VALID,349,VALID,0.828906,
2011-03-16, 03:17:04,VALID,1000.97,VALID,0,INVALID,163.594,VALID,0.100563,VALID,25.3157,VALID,346,VALID,0.872656,
2011-03-16, 03:18:04,VALID,1000.98,VALID,0,INVALID,163.609,VALID,0.100563,VALID,25.3176,VALID,338,VALID,0.849219,
2011-03-16, 03:19:04,VALID,1000.98,VALID,0,INVALID,163.632,VALID,0.100563,VALID,25.2786,VALID,347,VALID,0.770312,
2011-03-16, 03:20:04,VALID,1000.97,VALID,0,INVALID,163.617,VALID,0.100563,VALID,25.2592,VALID,346,VALID,0.887891,
2011-03-16, 03:21:04,VALID,1000.98,VALID,0,INVALID,163.609,VALID,0.100563,VALID,25.2397,VALID,343,VALID,0.405859,
2011-03-16, 03:22:04,VALID,1000.98,VALID,0,INVALID,163.624,VALID,0.100563,VALID,25.2183,VALID,339,VALID,0.378906,
2011-03-16, 03:23:04,VALID,1000.97,VALID,0,INVALID,163.617,VALID,0.100563,VALID,25.2007,VALID,344,VALID,0.571484,
2011-03-16, 03:24:04,VALID,1001,VALID,0,INVALID,163.624,VALID,0.100563,VALID,25.2007,VALID,340,VALID,0.691016,
2011-03-16, 03:25:04,VALID,1000.98,VALID,0,INVALID,163.639,VALID,0.100563,VALID,25.1618,VALID,345,VALID,0.542969,
2011-03-16, 03:26:04,VALID,1001,VALID,0,INVALID,163.632,VALID,0.100563,VALID,25.1423,VALID,340,VALID,0.703125,
2011-03-16, 03:27:04,VALID,1000.99,VALID,0,INVALID,163.617,VALID,0.100563,VALID,25.1034,VALID,340,VALID,0.799609,
2011-03-16, 03:28:04,VALID,1000.99,VALID,0,INVALID,163.632,VALID,0,VALID,25.1053,VALID,346,VALID,0.890234,
2011-03-16, 03:29:04,VALID,1000.97,VALID,0,INVALID,163.624,VALID,0,VALID,25.0663,VALID,357,VALID,0.881641,
2011-03-16, 03:30:04,VALID,1000.99,VALID,0,INVALID,163.655,VALID,0,VALID,25.0469,VALID,350,VALID,1.25625,
2011-03-16, 03:31:04,VALID,1000.97,VALID,0,INVALID,163.639,VALID,0,VALID,25.0469,VALID,338,VALID,0.536719,
2011-03-16, 03:32:04,VALID,1000.95,VALID,0,INVALID,163.632,VALID,0,VALID,25.0255,VALID,341,VALID,0.694141,
2011-03-16, 03:33:04,VALID,1000.97,VALID,0,INVALID,163.639,VALID,0,VALID,25.0469,VALID,348,VALID,0.842578,
2011-03-16, 03:34:04,VALID,1001.01,VALID,0,INVALID,163.67,VALID,0,VALID,25.0663,VALID,347,VALID,0.563672,
2011-03-16, 03:35:04,VALID,1000.99,VALID,0,INVALID,163.647,VALID,0,VALID,25.0663,VALID,346,VALID,0.733594,
2011-03-16, 03:36:04,VALID,1001.02,VALID,0,INVALID,163.662,VALID,0,VALID,25.0663,VALID,352,VALID,0.865625,
2011-03-16, 03:37:04,VALID,1000.99,VALID,0,INVALID,163.655,VALID,0,VALID,25.045,VALID,348,VALID,0.886328,
2011-03-16, 03:38:04,VALID,1001.02,VALID,0,INVALID,163.639,VALID,0,VALID,25.0663,VALID,340,VALID,0.675781,
2011-03-16, 03:39:04,VALID,1001.07,VALID,0,INVALID,163.655,VALID,0,VALID,25.0644,VALID,346,VALID,0.878125,
2011-03-16, 03:40:04,VALID,1001.05,VALID,0,INVALID,163.632,VALID,0,VALID,25.1053,VALID,349,VALID,0.874609,